CAPE
904 1321 1134 1070 1195 1511 1989 2345 2640 2766 2894 2777 2448 2597 2368 2342 2135 2215 1867 2240 2213 2486 2178 2705 2840 2458 2200 1899 2258 2502 2746 2380 2832 3088 2946 3219 3336 3615 4160 4751 4158 3328 3513 3172 2982 3107 3278 3154 3186 3226 3360 3119 2721 2230 1579 1350 1462 1656 1620 1677 1607 1766 2320 2685 2887 3120 3320 2979 2466 1914 1960 1880 1331 1450 1599 1537 1776 1742 1836 2150 2347 1935 1278 868 889
806 1004 976 1004 1000 1169 1212 1838 1997 2172 2606 2712 2756 2590 2476 2406 2409 2268 2211 2091 2472 2527 2581 2458 2957 2865 2750 2689 2586 2936 3499 4133 3609 3297 3571 3347 3524 3078 2937 3728 4241 3455 3425 4279 3791 3213 3165 3638 3594 3204 3125 2934 2539 2253 1767 1165 1026 1418 1440 1154 1860 2260 2401 2602 2866 3132 3199 3002 2757 2767 2266 2028 1632 1929 2053 2141 2218 2266 2070 2409 2090 1167 775 740 882
702 978 912 1080 1105 946 861 1114 1370 1719 1891 2429 2012 2363 2448 2403 2418 2409 2209 2191 2284 2408 2467 2226 2494 2962 2719 2904 3360 3577 4035 3696 3283 3392 3443 4067 4077 3514 2824 3065 3146 3143 3317 3203 3122 3102 2953 3031 3015 2752 2297 2132 2351 2061 1517 1194 1592 1432 1385 1690 1833 1541 1423 1812 2456 2948 3090 3271 3043 2572 2269 2422 2447 2275 2406 2073 2260 2067 2310 2022 1309 637 838 812 571
896 1554 1440 1080 962 903 1024 822 893 1123 1167 1489 1871 1804 1957 2325 2436 2524 2212 1984 2160 2283 2261 2194 2767 3171 3022 3527 3961 3435 4233 3698 3126 3110 4042 4117 4025 3726 3583 3802 3908 3923 3791 3874 3952 3716 3658 3672 3072 2228 2208 2282 2553 2823 2395 1946 1889 2373 2410 2531 2309 2374 2538 2596 2783 3172 3338 3259 3453 3176 2980 3013 3054 2491 2301 2032 1702 1638 1562 1673 1380 1348 1129 1148 731
938 1292 1551 1345 1023 880 881 567 501 708 646 897 1096 1365 1170 1597 1856 2282 2218 1513 1995 1573 2287 2320 2850 3524 2888 3416 3923 3570 3884 3564 3521 3141 3164 3274 3520 3459 3484 3694 3129 3412 3581 3767 3826 3752 3965 3928 3406 2838 2590 2365 2423 2494 2567 3005 3272 2883 2808 2778 3273 3277 3352 3283 3316 3101 3277 3331 3425 3602 3460 3050 2880 2612 2624 2422 2157 2002 2080 2437 2021 2057 2097 1625 1303
1175 1602 1593 1367 1300 1031 861 572 374 374 302 216 327 526 673 1376 1257 1551 1759 1580 1798 1717 1974 2292 2618 3288 3033 2986 3162 3707 3535 3511 3580 3551 2809 2991 3052 3274 3558 3692 3565 3500 3401 2959 2890 2988 2843 2798 2592 2528 2591 2700 2687 2581 3069 3537 3737 2961 2391 2595 3111 3254 3381 3513 3654 3734 3716 3841 4002 3170 3240 2689 2810 2956 3053 2781 2465 2246 2682 2836 2788 2517 2581 2158 2020
1998 2480 2301 1625 1611 1243 1066 906 556 304 210 168 152 224 322 466 864 1638 1235 1176 1526 1602 1763 2114 2368 2730 3127 3125 3014 3202 3589 3421 3914 4020 3442 2743 2867 3196 2749 2957 2843 3008 3167 2812 2633 2778 2720 2577 2959 2970 2979 2924 2639 2504 3020 3429 3312 3229 3514 3962 3542 3290 3198 3506 3410 3678 3896 3780 3031 2524 2476 2325 2154 2579 2551 2802 3162 3488 4290 3292 2445 1823 2376 2682 3210
3232 3574 3569 2060 1877 1656 1302 1288 902 569 337 351 273 189 203 221 312 303 552 665 508 1384 1559 1552 1786 2242 2800 2557 2747 2555 3360 3513 3854 3957 3256 3217 2588 2586 2719 2700 2687 2738 2507 2671 2455 2028 2092 2245 2201 2620 2628 2870 2860 2821 2689 2514 3213 3639 3691 3554 3761 4137 3859 3034 3317 3261 3151 2846 2604 2279 2476 3193 2925 2417 2238 2399 2577 2498 1745 1194 1618 1738 1947 3115 1913
3943 4070 3795 3157 2714 2142 1608 1546 1447 1018 492 486 406 316 328 267 302 347 289 346 418 327 681 868 1398 1556 1820 1953 1961 2228 2254 2843 3314 3787 3429 3678 3699 2998 2456 2787 2445 2726 2600 2451 2370 2144 1886 1787 1805 1792 2666 2663 3902 3503 3277 2728 2550 2887 2819 2728 2740 2604 2846 3304 3478 3586 3570 2943 2846 2733 2236 2443 2661 2657 1796 1371 1527 1314 957 593 1011 826 1064 1175 2065
3993 4018 3939 3480 3343 3433 2558 1843 1771 1752 1156 906 1071 910 620 474 301 415 340 319 407 566 447 673 847 1268 1505 2023 1839 1906 1672 1537 3464 2601 2790 3169 3294 2811 2813 2967 2388 2176 2364 2322 1987 2124 1913 1828 1125 1317 2916 2548 3493 3059 1888 1963 2681 2716 2838 3460 3675 3654 3566 3410 3228 3021 2606 2433 2229 2134 1703 1100 511 584 374 505 686 770 601 1022 1069 1084 1617 2055 3040
3964 3885 3624 3333 3548 3869 3805 3314 2569 2360 2177 1660 1884 1948 1575 1061 1012 974 667 657 779 914 930 541 411 760 1231 1460 1782 1794 1723 1406 1297 1919 1996 1946 2284 2829 2835 2675 2210 2741 2271 2054 2290 1766 1350 921 1353 3221 3452 4188 3711 4155 3898 3271 2952 2349 1953 2433 3514 3046 2589 2549 2916 3014 2977 2623 2195 1434 788 1040 971 1003 880 285 132 340 1048 2072 2241 2622 2897 2908 2965
2861 3620 3737 3660 3756 4034 4245 4134 4102 3815 3254 2630 2709 3120 2774 2898 2080 2180 1908 1984 1970 1344 1451 1348 1473 1136 834 1017 974 1162 1395 1315 1522 1807 1936 1924 1773 2562 1814 1620 1277 1616 1410 735 1594 1669 1449 1261 1018 854 1002 1759 1871 3545 4299 3846 2897 2668 2350 2130 2002 2007 2574 3142 2592 2489 2408 1934 1758 1737 1598 1496 1399 1520 1005 566 1470 2368 3026 3352 3575 3457 3297 3170 3093
2775 2754 3103 3390 3715 4028 4289 4169 4236 4358 4387 4470 4496 3283 5154 5006 5127 4488 3464 2891 2591 2098 1808 1768 1803 1565 1080 718 489 641 1256 1503 1425 1579 1698 1572 1287 1272 1504 1374 1239 836 846 1239 1483 1476 1424 1864 1976 1578 516 2757 2926 2608 3660 4600 3627 2633 2958 2777 2544 2402 2242 1933 2006 3532 2598 3367 2706 2574 2442 1941 2308 2430 2199 2636 3194 3526 3899 3688 3618 3559 3574 3502 3408
2136 2299 2500 2582 2880 3161 3238 2730 2501 2640 2976 3571 3297 4470 4321 4602 3785 3645 3500 3442 2936 2765 2174 1891 1750 1753 1408 1019 1089 2001 1723 1524 1361 1318 1265 1167 950 748 1343 1357 1194 838 778 885 1176 1535 1225 1892 1959 1579 1835 1744 3890 3783 3539 3718 3747 4919 4496 4518 4487 4419 3543 2598 2272 1968 1982 2134 2217 2440 2581 2616 2972 2960 3588 3618 3473 3907 3672 3771 3585 3022 3239 3274 3437
2083 2247 2289 2327 2295 2257 2382 1417 1328 1235 1722 2342 2830 3408 2134 3297 3658 3910 3788 3542 3245 3062 2568 2059 1935 1977 1697 941 1890 1900 1837 1589 1300 1060 970 959 1053 748 1578 1394 750 356 332 478 1196 1119 1946 2224 2353 2137 2567 3214 2924 3190 3256 3900 3872 3497 3469 3227 2715 2744 2398 3016 3205 2720 2379 2226 2513 2789 2794 3185 3393 4048 2747 3248 2679 3017 3142 3686 3322 2856 2793 2623 2444
1997 2015 2152 2239 2203 2280 2323 1852 1688 1683 2178 2046 2507 3065 2901 3357 3357 3371 3246 3368 3483 3216 3228 2469 2496 2289 2080 2192 1906 1232 1253 1202 1193 1093 1124 1153 1219 1615 2235 2188 1556 950 562 1361 1708 2370 2306 2556 2471 2803 2787 2690 2770 2993 3001 2783 2441 2436 2865 3238 3046 2271 1672 1485 1473 1728 2010 1779 1190 1173 1597 2057 1601 1891 2180 2252 2359 2376 2188 2106 2246 2444 1959 2241 2457
1757 2171 2078 1593 1270 1442 1189 1294 2054 1427 1848 2059 1738 2018 1974 1693 1578 1579 1914 2131 2303 2310 2579 2033 1633 1680 1971 2018 1601 1136 927 954 1115 1193 1171 1208 1132 2179 2499 2557 2733 2672 2386 2265 1547 1722 2111 2678 2414 2287 2158 2179 2373 2389 2171 1768 2392 2768 3106 3034 3088 2950 2724 2143 2064 1920 1737 1771 1874 1922 1743 1985 2276 2277 2236 2289 2447 2406 2316 2117 2111 2121 1740 2290 1754
1212 1195 1044 998 1367 1296 1360 1594 1600 1734 1780 1823 1606 1692 1761 1277 1206 1302 1654 1581 1600 1393 1584 1410 1671 1430 1393 1157 1541 1305 945 894 1004 1118 1192 1256 1310 1534 2099 3007 2491 2541 3166 2515 1872 1381 1428 1843 1839 1691 1581 1578 1783 1947 1820 1772 1924 2510 2737 2560 2719 2696 2663 2478 2327 2256 2451 2343 2233 2180 2083 2147 2538 2406 2282 2387 2460 2330 2024 1674 1634 1697 1735 1621 2022
722 904 836 900 919 910 997 1135 1122 992 968 982 884 925 835 886 968 1120 1028 882 920 915 1042 1079 1201 1127 1108 1056 1034 847 740 814 971 1030 1082 1110 1106 1375 2602 1623 1829 2829 2837 1807 1506 1399 1413 1513 1640 1604 1583 1546 1494 1438 1408 1290 1262 1400 2134 2245 2124 2100 1981 1806 1800 2092 2302 2456 2727 2758 3543 3115 3411 2987 2694 2143 1782 1611 1468 1353 1477 1620 1676 1601 1444
701 719 726 754 779 820 800 772 745 730 688 683 677 621 607 602 594 720 719 741 743 608 777 861 924 950 904 975 944 733 761 871 920 1020 1024 964 891 989 1097 1394 1805 1780 1349 1670 1145 1058 1284 1141 1289 1310 1338 1330 1236 1109 1007 920 795 926 1092 1719 1720 1752 1273 1190 1265 1338 1636 1917 2056 1788 1692 1830 2173 2058 2242 1718 2256 1992 1926 1741 1547 1309 1366 1286 1313
574 629 607 570 585 627 653 646 620 586 536 524 544 580 586 598 585 539 568 556 628 560 680 740 717 722 818 733 634 639 649 754 768 780 756 730 779 794 846 940 1084 1209 1109 1190 1038 1041 1083 761 700 734 758 808 864 850 761 684 595 588 655 722 586 515 522 546 637 931 1479 1826 1864 1731 1826 1749 1787 1361 1489 1625 1800 2207 2004 2069 1574 1200 1252 1114 1096
368 317 388 353 407 495 622 517 374 342 338 310 319 365 388 364 418 398 375 292 465 608 446 549 613 592 629 597 632 650 593 549 605 641 634 660 679 712 730 722 770 784 807 848 762 724 566 560 536 500 539 553 548 569 584 552 528 486 448 407 384 397 400 402 510 1122 1556 1431 1339 1056 959 1254 937 1102 1077 1068 934 950 950 1702 1084 1618 1369 1239 1293
309 300 218 243 19 123 261 375 362 257 6 1 96 293 199 186 294 323 265 255 62 318 316 416 379 372 365 481 491 517 539 526 519 514 500 490 481 494 530 558 557 517 484 576 561 519 423 260 205 181 256 381 390 324 269 239 210 147 93 61 21 0 45 542 705 840 1049 1032 907 896 785 806 707 694 686 645 633 797 527 637 438 1033 1475 1826 1804
190 207 114 0 60 107 0 27 238 189 263 193 4 112 62 0 106 134 17 129 0 7 3 170 164 128 232 258 304 342 364 359 351 315 287 269 257 270 271 259 241 276 265 231 165 75 38 30 35 40 38 30 12 0 0 0 0 0 0 0 0 71 333 171 146 307 323 368 290 259 260 274 290 262 251 320 243 233 215 186 228 233 173 810 2086
3 20 47 0 0 0 0 0 20 0 38 69 164 188 106 1 1 0 3 3 3 2 2 51 130 191 165 167 168 149 131 143 161 124 129 131 119 117 114 96 81 70 50 34 0 0 0 0 0 0 0 0 0 0 0 0 0 0 0 0 0 53 50 44 38 57 114 92 74 40 47 57 20 16 20 80 96 71 120 143 129 64 15 14 54
6 1 6 11 0 0 0 0 0 0 0 0 83 178 173 46 3 5 2 1 0 34 179 190 176 50 0 0 3 15 41 65 59 61 48 66 57 16 0 0 0 0 0 0 0 0 0 0 0 0 0 0 0 2 0 0 0 0 0 1 6 5 0 0 0 0 1 0 0 0 0 0 0 0 22 59 16 35 96 23 0 0 0 0 0
44 93 92 28 0 0 0 0 0 0 0 0 0 0 0 0 0 4 10 9 9 4 14 0 0 0 0 0 0 0 0 0 0 0 0 0 0 0 0 0 0 0 0 0 0 0 0 0 0 0 0 0 0 0 0 0 10 9 13 0 0 0 0 0 0 0 0 0 0 0 0 0 0 0 0 0 4 19 0 0 0 0 0 0 0
97 94 106 129 123 0 0 0 0 0 0 81 33 0 0 0 0 38 0 0 0 12 7 5 6 0 0 0 0 0 0 0 0 0 0 0 0 0 0 0 0 0 0 0 0 0 0 0 0 0 54 22 3 0 0 0 0 0 0 0 0 0 0 0 0 0 0 0 0 0 0 0 0 0 0 0 0 0 0 0 0 0 0 0 0
56 10 25 63 93 88 50 0 0 1 7 0 0 0 0 0 0 0 0 0 0 0 0 1 0 1 2 3 4 0 0 0 0 0 0 0 0 0 0 0 0 0 0 0 0 0 0 0 0 0 0 0 0 0 0 0 0 0 0 0 0 0 0 0 0 0 0 0 0 0 0 0 0 0 0 0 0 0 0 0 0 0 0 0 0
19 16 13 54 76 66 40 6 4 4 2 1 0 0 0 0 0 0 0 0 0 0 0 0 0 0 0 0 0 0 0 0 0 0 0 0 0 0 0 0 0 0 0 0 0 0 0 0 0 0 0 0 0 0 0 0 0 0 0 0 0 0 0 0 0 0 0 0 0 0 0 0 0 0 0 0 0 0 0 0 0 0 0 0 0
26 16 16 46 23 85 67 74 9 8 6 5 0 0 0 0 0 0 0 0 0 0 0 0 0 0 0 0 0 0 0 0 0 0 0 0 0 0 0 0 0 0 0 0 0 0 0 0 0 0 0 0 0 0 0 0 0 0 0 0 0 0 0 0 0 0 0 0 0 0 0 0 0 0 0 0 0 0 0 0 0 0 0 0 0
21 33 44 30 17 9 19 18 10 66 9 11 14 2 0 0 0 0 0 0 0 0 0 0 0 0 0 0 0 0 0 0 0 0 0 0 0 0 0 0 0 0 0 0 0 0 0 0 0 0 0 0 0 0 0 0 0 0 0 0 0 0 0 0 0 0 0 0 0 0 0 0 0 0 0 0 0 0 0 0 0 0 0 0 0
38 47 46 22 18 12 22 22 16 18 61 22 15 10 2 2 0 0 0 0 0 0 0 0 0 0 0 0 0 0 0 0 0 0 0 0 0 0 0 0 0 0 0 2 0 0 0 0 0 0 0 0 0 0 0 0 0 0 0 0 0 0 0 0 0 0 0 0 0 0 0 0 0 0 0 0 0 0 0 0 0 0 0 0 0
19 17 16 18 20 23 18 26 22 30 17 20 20 12 6 2 0 1 0 0 0 0 0 0 0 0 0 0 0 0 0 0 0 0 0 0 0 0 0 0 0 0 0 0 0 0 0 0 0 0 0 0 0 0 0 0 0 0 0 0 0 0 0 0 0 0 0 0 0 0 0 0 0 0 0 0 0 0 0 0 0 0 0 0 0
21 16 19 15 37 35 33 28 14 19 18 21 16 7 8 11 5 4 0 0 0 0 0 0 0 0 0 0 0 0 0 0 0 0 0 0 0 0 0 0 0 6 1 0 0 0 0 0 0 0 0 0 0 0 0 0 0 0 0 0 0 0 0 0 0 0 0 0 0 0 0 0 0 0 0 0 0 0 0 0 0 0 0 0 0
14 24 20 15 17 20 18 21 19 22 18 16 12 9 8 8 10 7 4 8 5 1 2 2 0 0 0 0 0 0 0 0 0 0 0 0 0 0 0 1 0 0 0 0 0 0 0 0 0 0 0 0 0 0 0 0 0 0 0 0 0 0 0 0 0 0 0 0 0 0 0 0 0 0 0 0 0 0 0 0 0 0 0 0 0
10 13 14 16 14 19 21 18 22 8 2 8 14 12 8 6 2 4 5 3 4 1 2 11 2 0 0 0 0 0 0 0 0 0 0 0 0 0 0 1 0 0 0 0 0 0 0 0 0 0 0 0 0 0 0 0 0 0 0 1 0 0 0 0 0 0 1 0 0 0 1 0 0 0 0 0 0 0 0 0 0 0 0 0 0
10 4 11 10 18 17 12 15 2 0 7 2 14 12 3 8 7 2 1 1 1 2 0 2 0 4 13 5 0 0 0 0 0 0 0 0 0 0 2 0 0 0 0 2 0 0 0 0 0 0 0 0 0 0 0 0 0 0 0 0 0 0 0 0 0 1 0 0 0 0 0 0 0 0 0 0 0 0 0 0 0 0 0 0 0
18 2 1 1 5 12 9 8 10 1 6 4 3 6 2 2 0 0 0 1 0 0 0 1 1 0 1 1 2 0 0 0 0 0 2 1 0 0 0 0 0 0 0 0 0 0 0 0 0 0 0 0 0 0 0 0 0 0 0 0 0 0 0 0 0 1 0 0 0 0 0 0 0 0 0 0 0 0 0 0 0 0 0 0 0
2 5 1 0 1 1 4 4 6 0 1 0 3 3 2 2 0 0 0 0 0 0 0 0 0 0 0 0 0 0 0 0 0 0 0 0 0 0 0 0 0 0 0 0 0 0 0 0 0 0 0 0 0 0 0 0 0 0 0 0 0 0 0 0 0 0 0 0 0 0 0 0 0 0 0 0 0 0 0 0 0 0 0 0 0
0 0 8 2 2 4 7 4 2 0 1 0 1 0 2 0 0 0 0 2 0 0 0 0 0 0 0 0 0 0 0 0 0 0 0 0 0 0 0 0 0 0 0 0 0 0 0 0 0 0 0 0 0 0 0 0 0 0 0 0 0 0 0 0 0 0 0 0 0 0 0 3 2 0 0 0 0 0 0 0 0 0 0 0 0
0 0 0 2 0 0 0 0 0 0 0 2 0 0 4 4 2 1 4 2 1 0 0 0 0 0 0 0 0 0 0 0 0 0 0 0 0 0 0 0 0 0 0 0 0 0 0 0 0 0 0 0 0 0 0 0 0 0 0 0 0 0 0 0 0 2 2 2 0 1 0 2 1 0 0 0 0 0 0 0 0 0 0 0 0
0 0 0 0 0 0 1 0 1 0 0 0 0 2 2 1 1 0 0 0 0 0 0 0 0 0 0 0 0 0 0 0 0 0 0 0 0 0 0 0 0 0 0 0 0 0 0 0 0 0 0 0 0 0 0 0 0 0 0 0 2 3 6 5 4 5 4 4 3 4 3 2 3 2 0 0 0 0 0 0 0 0 0 0 0
0 0 0 0 0 0 0 0 0 0 0 0 0 5 0 0 1 0 0 0 0 0 0 0 0 0 0 0 0 0 0 0 0 0 0 0 0 0 0 0 0 0 0 0 1 2 1 0 0 0 0 0 0 1 2 2 2 1 2 2 3 5 6 0 0 0 0 3 4 4 3 3 2 4 4 4 1 0 0 0 0 0 0 0 0
0 0 0 0 0 0 0 2 0 0 0 0 0 0 0 0 0 0 0 0 0 0 0 0 0 0 0 0 0 0 0 0 0 0 0 0 0 0 0 0 1 4 4 3 2 3 3 1 0 1 1 1 1 3 6 7 8 6 6 5 6 0 0 0 0 0 0 2 1 1 2 3 4 3 6 2 7 3 3 0 0 0 0 0 0
0 0 0 0 0 0 0 0 0 0 0 0 0 0 0 0 0 0 0 0 0 0 0 0 0 0 0 0 0 0 0 0 0 0 0 0 0 0 0 2 5 6 4 3 4 4 3 2 1 0 1 2 2 1 3 4 4 6 6 8 0 0 0 0 0 0 0 1 2 2 2 3 2 3 8 6 0 5 1 3 3 0 0 1 0
0 0 0 0 0 0 0 0 0 0 0 0 0 0 0 0 0 0 0 0 0 0 0 0 0 0 0 0 0 0 0 0 0 0 0 0 2 3 3 7 7 6 4 4 4 2 2 1 0 1 1 2 2 3 2 3 4 7 6 3 0 1 0 0 0 0 0 0 0 0 1 4 4 0 6 0 0 7 8 4 0 0 0 1 1
0 0 0 0 0 0 0 0 0 0 0 0 1 0 0 0 0 0 0 0 0 0 0 0 0 0 0 0 0 0 0 0 0 0 0 0 0 3 5 5 5 4 5 5 5 3 1 1 1 2 5 6 2 2 3 4 7 6 7 0 0 0 0 0 0 0 0 0 0 1 3 3 4 2 2 3 4 3 2 2 2 1 2 3 5
0 0 0 0 0 0 0 0 0 0 0 0 0 0 0 0 0 0 0 0 0 0 0 0 0 0 0 0 0 0 0 0 0 0 0 0 1 2 4 5 6 6 5 3 2 3 3 3 5 3 5 3 0 0 0 9 7 9 1 1 0 0 0 0 0 0 0 0 1 1 1 2 4 7 8 8 2 4 1 6 6 0 0 0 8
0 0 0 0 0 0 0 0 0 0 0 0 0 0 0 0 0 0 0 0 0 0 0 0 0 0 0 0 0 0 0 0 0 0 0 2 1 1 3 2 0 0 0 2 0 3 3 4 5 5 0 1 2 1 3 0 0 0 3 0 0 0 0 0 0 0 0 0 0 0 2 4 6 7 7 6 10 4 9 0 1 4 4 4 7
0 0 0 0 0 0 0 0 0 0 0 0 0 0 0 0 0 0 0 0 0 0 0 0 0 0 0 0 0 0 0 0 0 0 2 2 1 1 2 3 2 1 0 0 1 0 3 1 3 4 2 5 0 0 0 0 0 0 0 0 0 0 0 0 0 0 0 0 0 1 4 7 9 10 10 10 12 12 15 11 9 14 4 1 1
Wind_Speed
13 12 13 12 11 9 9 9 8 9 8 7 6 9 8 7 8 8 9 9 10 9 8 8 8 8 7 7 7 8 8 7 8 8 8 7 6 5 6 8 6 5 6 4 4 5 6 5 5 5 6 6 6 6 6 6 8 10 10 10 9 10 10 9 7 7 9 8 7 7 7 7 6 8 7 8 7 7 6 6 5 3 3 5 4
12 13 12 13 11 11 10 10 9 9 8 10 7 10 10 9 10 9 11 10 10 10 10 9 9 9 8 8 8 9 9 9 7 8 8 7 5 6 5 5 5 4 4 4 4 3 5 6 5 5 6 6 6 6 7 6 7 8 9 9 10 11 12 11 10 9 8 10 8 8 7 8 7 9 8 7 7 7 6 7 5 3 4 6 5
12 12 12 13 11 12 12 12 11 9 9 11 8 10 11 11 12 10 10 11 11 11 11 9 11 10 10 10 10 10 11 9 8 8 8 7 6 5 5 5 5 4 3 3 3 3 3 4 4 5 6 6 7 6 6 6 7 7 8 9 9 9 10 11 11 10 9 10 10 8 8 7 6 6 6 7 8 8 8 7 6 5 4 4 6
14 13 13 12 11 12 13 13 13 12 11 11 10 10 12 14 13 12 11 12 14 12 12 11 13 12 11 12 11 10 11 10 9 8 8 8 7 7 7 7 6 5 4 4 4 4 4 4 3 3 4 5 5 4 5 5 7 9 8 9 9 9 10 10 11 11 11 10 11 9 7 6 5 5 5 6 5 7 7 7 6 5 4 4 5
18 17 15 12 11 11 12 12 14 13 12 13 11 11 12 14 14 14 15 11 16 14 14 13 14 13 11 12 11 11 11 10 9 8 8 8 7 6 6 6 6 6 6 6 6 6 5 5 5 6 5 5 5 5 6 7 7 7 8 9 10 9 10 10 10 10 10 9 9 9 7 5 4 3 3 3 4 6 7 8 6 6 6 5 4
21 20 18 16 15 13 13 12 13 14 13 13 13 14 14 17 16 13 15 12 15 15 17 15 16 13 12 12 13 12 11 11 10 10 8 7 9 8 8 8 8 8 7 7 7 7 7 7 7 7 7 7 6 7 8 8 9 8 8 9 9 9 9 9 10 10 9 9 8 7 7 5 4 4 2 2 3 4 5 8 8 9 9 7 6
21 21 21 19 20 18 16 14 14 15 15 13 14 16 16 16 17 22 16 13 16 17 18 18 17 16 14 13 13 14 12 11 13 11 8 9 10 10 8 9 9 10 9 8 8 9 9 9 10 9 9 10 9 9 10 10 10 9 10 10 10 10 10 10 10 9 10 9 9 8 8 8 6 4 4 5 3 5 5 7 8 10 10 10 8
22 22 21 22 22 21 21 19 17 17 18 17 15 15 17 17 18 19 19 18 17 18 17 20 18 17 15 14 15 15 17 13 14 11 10 14 17 13 15 10 10 11 11 10 11 9 10 10 10 12 11 12 12 12 12 11 12 11 12 12 12 12 11 10 10 11 11 10 10 10 11 10 9 7 6 7 7 8 9 8 9 11 12 12 11
22 22 22 22 23 23 23 22 22 22 20 20 18 16 18 19 20 20 21 20 20 19 19 18 18 18 19 17 15 16 17 15 15 16 14 15 18 20 15 13 11 11 12 11 11 10 10 11 10 10 12 11 15 18 18 20 17 14 13 13 12 12 12 12 12 13 13 12 12 13 12 13 13 12 11 11 11 9 11 11 11 12 12 12 14
23 23 22 22 23 23 22 23 24 23 22 23 22 21 20 21 20 21 21 21 20 21 21 20 18 19 20 24 18 18 18 22 30 25 19 19 20 19 19 17 12 10 12 13 11 10 10 9 10 8 16 15 18 17 15 13 15 13 12 12 12 12 12 12 12 12 13 12 12 13 13 13 13 14 13 12 12 12 13 15 12 11 11 10 12
26 26 24 23 24 24 23 22 23 22 23 24 25 24 23 22 22 23 22 21 21 22 22 22 20 21 20 22 22 21 25 32 31 31 29 29 21 20 20 18 11 10 12 13 13 11 11 10 10 19 23 18 17 16 14 15 14 14 11 12 13 12 11 10 11 11 11 11 11 11 12 12 13 14 14 11 11 13 13 12 10 10 9 8 8
26 28 27 25 25 26 25 25 25 24 23 24 24 25 26 25 26 25 24 23 24 23 23 23 24 22 23 22 23 29 35 34 35 33 32 30 29 23 19 16 15 16 15 12 13 14 13 12 14 14 17 14 13 14 15 13 13 13 12 11 10 10 11 12 11 11 10 10 10 11 11 11 11 12 11 11 13 11 11 9 8 8 8 7 7
24 24 25 26 26 27 27 27 28 27 26 26 27 26 27 28 29 30 29 28 26 26 26 26 26 25 23 24 24 34 36 40 36 35 33 32 31 25 21 18 17 17 17 15 17 16 14 16 16 17 20 28 20 18 15 15 15 14 14 14 13 12 10 8 8 10 11 11 10 10 10 11 10 11 11 10 11 8 8 8 9 9 8 7 6
19 21 22 23 25 27 30 29 29 29 27 29 26 29 27 26 27 28 28 29 29 29 28 28 28 29 27 26 34 38 37 39 38 35 34 33 32 29 23 20 19 18 19 18 18 18 18 17 18 18 17 21 25 22 19 16 15 17 15 16 15 15 15 14 12 10 10 10 10 11 11 12 10 11 11 12 9 10 10 9 10 9 9 8 9
19 20 21 22 24 26 32 30 28 28 29 31 31 30 31 28 31 31 30 29 30 31 31 32 32 32 32 31 36 39 38 40 39 38 37 34 32 27 24 23 21 20 19 18 18 17 19 18 21 19 27 32 28 27 26 23 19 17 14 13 12 12 14 15 16 16 15 13 11 10 13 12 12 14 15 17 16 16 14 13 13 11 7 7 9
23 23 22 25 26 30 32 34 34 36 34 33 33 33 32 34 35 36 35 33 32 32 34 34 35 35 37 36 40 41 42 44 40 41 38 34 31 27 25 24 22 20 21 21 26 28 29 26 22 28 32 31 29 30 31 25 23 18 16 14 14 13 14 15 22 18 14 14 13 11 14 17 19 16 18 19 20 18 16 14 15 14 10 12 14
29 31 31 33 31 31 32 31 32 33 31 30 31 33 34 37 38 37 38 38 37 37 39 44 47 41 40 48 47 45 46 46 44 43 40 37 31 28 26 25 24 23 25 35 32 30 31 31 30 27 32 31 30 30 31 27 23 21 19 18 18 18 19 20 26 23 21 19 18 18 16 14 14 15 14 15 18 21 18 16 18 19 17 16 17
31 33 33 35 37 35 35 32 32 33 34 33 34 37 39 38 37 38 38 39 42 44 49 49 47 42 45 49 47 46 49 50 49 46 44 41 35 31 28 27 27 24 30 34 33 32 35 41 34 31 31 31 30 31 29 26 24 23 21 19 19 19 20 23 22 21 22 22 19 20 18 14 12 12 13 14 14 22 22 17 18 22 18 18 17
37 35 34 35 36 38 37 36 35 36 37 37 38 39 40 38 39 41 40 40 44 46 48 48 47 48 52 55 54 51 51 52 53 50 49 46 40 34 32 29 27 29 32 33 32 30 32 38 41 35 33 33 32 31 31 29 27 25 24 22 20 20 24 26 25 23 23 21 22 22 20 21 21 19 19 24 28 29 28 23 22 22 19 18 19
42 41 40 40 40 38 38 39 37 37 38 38 39 39 40 41 43 44 43 42 44 44 45 44 43 46 51 54 52 52 53 53 53 53 54 52 48 40 38 36 35 35 34 34 32 28 33 35 38 39 38 37 35 34 32 32 30 28 27 25 25 25 26 24 24 24 22 21 20 22 23 23 21 19 23 24 24 28 31 29 27 25 22 20 22
43 42 41 42 42 41 40 40 41 42 40 40 38 36 35 38 39 40 40 40 40 42 44 42 43 44 47 48 50 53 54 54 52 53 53 53 53 47 43 43 41 39 32 35 33 33 34 36 38 41 41 39 35 34 32 32 31 29 32 32 30 27 26 24 24 22 22 22 23 25 26 26 24 25 25 26 26 27 28 30 34 30 26 22 19
44 45 45 44 43 43 44 46 46 44 43 43 42 40 37 35 35 35 34 34 34 35 35 35 36 38 41 43 46 49 54 56 48 50 51 51 51 51 45 44 39 40 39 41 41 41 40 38 39 40 42 37 33 32 32 32 30 31 36 31 27 29 28 26 24 27 28 27 26 27 29 30 29 28 28 28 28 29 28 30 31 36 33 26 20
47 48 47 44 nan 40 40 43 45 45 nan nan nan 39 38 37 35 33 33 33 nan 31 31 29 29 29 30 31 32 38 43 47 49 47 48 48 47 47 46 43 42 40 41 44 44 43 41 41 39 40 36 31 28 27 31 35 31 38 nan nan nan nan nan 30 32 30 30 30 30 31 32 32 31 30 31 31 31 32 31 32 33 35 36 33 28
49 48 46 nan nan 44 nan nan 43 44 42 38 nan 38 nan nan 37 35 nan 34 nan nan nan 30 29 29 28 26 25 26 29 33 38 42 42 45 46 46 46 46 45 40 41 43 44 nan nan nan nan nan nan nan nan nan nan nan nan nan nan nan nan nan 34 37 35 35 33 34 34 34 33 34 32 32 32 32 30 31 31 32 33 35 34 34 33
nan nan nan nan nan nan nan nan nan nan nan nan 38 37 39 nan nan nan nan nan nan nan nan nan 32 30 28 27 26 23 20 21 24 26 29 32 37 37 37 nan nan nan nan nan nan nan nan nan nan nan nan nan nan nan nan nan nan nan nan nan nan nan nan nan nan nan 37 nan nan nan nan nan nan nan nan nan nan nan 31 32 34 nan nan nan nan
nan nan nan nan nan nan nan nan nan nan nan nan nan 35 35 nan nan nan nan nan nan nan 31 31 30 nan nan nan nan nan nan nan nan nan nan nan nan nan nan nan nan nan nan nan nan nan nan nan nan nan nan nan nan nan nan nan nan nan nan nan nan nan nan nan nan nan nan nan nan nan nan nan nan nan nan nan nan nan nan nan nan nan nan nan nan
nan nan nan nan nan nan nan nan nan nan nan nan nan nan nan nan nan nan nan nan nan nan nan nan nan nan nan nan nan nan nan nan nan nan nan nan nan nan nan nan nan nan nan nan nan nan nan nan nan nan nan nan nan nan nan nan nan nan nan nan nan nan nan nan nan nan nan nan nan nan nan nan nan nan nan nan nan nan nan nan nan nan nan nan nan
nan nan 40 38 37 nan nan nan nan nan nan nan nan nan nan nan nan nan nan nan nan nan nan nan nan nan nan nan nan nan nan nan nan nan nan nan nan nan nan nan nan nan nan nan nan nan nan nan nan nan nan nan nan nan nan nan nan nan nan nan nan nan nan nan nan nan nan nan nan nan nan nan nan nan nan nan nan nan nan nan nan nan nan nan nan
nan nan nan nan nan nan nan nan nan nan nan nan nan nan nan nan nan nan nan nan nan nan nan nan nan nan nan nan nan nan nan nan nan nan nan nan nan nan nan nan nan nan nan nan nan nan nan nan nan nan nan nan nan nan nan nan nan nan nan nan nan nan nan nan nan nan nan nan nan nan nan nan nan nan nan nan nan nan nan nan nan nan nan nan nan
nan nan nan nan nan nan nan nan nan nan nan nan nan nan nan nan nan nan nan nan nan nan nan nan nan nan nan nan nan nan nan nan nan nan nan nan nan nan nan nan nan nan nan nan nan nan nan nan nan nan nan nan nan nan nan nan nan nan nan nan nan nan nan nan nan nan nan nan nan nan nan nan nan nan nan nan nan nan nan nan nan nan nan nan nan
nan nan nan nan nan nan nan nan nan nan nan nan nan nan nan nan nan nan nan nan nan nan nan nan nan nan nan nan nan nan nan nan nan nan nan nan nan nan nan nan nan nan nan nan nan nan nan nan nan nan nan nan nan nan nan nan nan nan nan nan nan nan nan nan nan nan nan nan nan nan nan nan nan nan nan nan nan nan nan nan nan nan nan nan nan
nan nan nan nan nan nan nan nan nan nan nan nan nan nan nan nan nan nan nan nan nan nan nan nan nan nan nan nan nan nan nan nan nan nan nan nan nan nan nan nan nan nan nan nan nan nan nan nan nan nan nan nan nan nan nan nan nan nan nan nan nan nan nan nan nan nan nan nan nan nan nan nan nan nan nan nan nan nan nan nan nan nan nan nan nan
nan nan nan nan nan nan nan nan nan nan nan nan nan nan nan nan nan nan nan nan nan nan nan nan nan nan nan nan nan nan nan nan nan nan nan nan nan nan nan nan nan nan nan nan nan nan nan nan nan nan nan nan nan nan nan nan nan nan nan nan nan nan nan nan nan nan nan nan nan nan nan nan nan nan nan nan nan nan nan nan nan nan nan nan nan
nan nan nan nan nan nan nan nan nan nan nan nan nan nan nan nan nan nan nan nan nan nan nan nan nan nan nan nan nan nan nan nan nan nan nan nan nan nan nan nan nan nan nan nan nan nan nan nan nan nan nan nan nan nan nan nan nan nan nan nan nan nan nan nan nan nan nan nan nan nan nan nan nan nan nan nan nan nan nan nan nan nan nan nan nan
nan nan nan nan nan nan nan nan nan nan nan nan nan nan nan nan nan nan nan nan nan nan nan nan nan nan nan nan nan nan nan nan nan nan nan nan nan nan nan nan nan nan nan nan nan nan nan nan nan nan nan nan nan nan nan nan nan nan nan nan nan nan nan nan nan nan nan nan nan nan nan nan nan nan nan nan nan nan nan nan nan nan nan nan nan
nan nan nan nan nan nan nan nan nan nan nan nan nan nan nan nan nan nan nan nan nan nan nan nan nan nan nan nan nan nan nan nan nan nan nan nan nan nan nan nan nan nan nan nan nan nan nan nan nan nan nan nan nan nan nan nan nan nan nan nan nan nan nan nan nan nan nan nan nan nan nan nan nan nan nan nan nan nan nan nan nan nan nan nan nan
nan nan nan nan nan nan nan nan nan nan nan nan nan nan nan nan nan nan nan nan nan nan nan nan nan nan nan nan nan nan nan nan nan nan nan nan nan nan nan nan nan nan nan nan nan nan nan nan nan nan nan nan nan nan nan nan nan nan nan nan nan nan nan nan nan nan nan nan nan nan nan nan nan nan nan nan nan nan nan nan nan nan nan nan nan
nan nan nan nan nan nan nan nan nan nan nan nan nan nan nan nan nan nan nan nan nan nan nan nan nan nan nan nan nan nan nan nan nan nan nan nan nan nan nan nan nan nan nan nan nan nan nan nan nan nan nan nan nan nan nan nan nan nan nan nan nan nan nan nan nan nan nan nan nan nan nan nan nan nan nan nan nan nan nan nan nan nan nan nan nan
nan nan nan nan nan nan nan nan nan nan nan nan nan nan nan nan nan nan nan nan nan nan nan nan nan nan nan nan nan nan nan nan nan nan nan nan nan nan nan nan nan nan nan nan nan nan nan nan nan nan nan nan nan nan nan nan nan nan nan nan nan nan nan nan nan nan nan nan nan nan nan nan nan nan nan nan nan nan nan nan nan nan nan nan nan
nan nan nan nan nan nan nan nan nan nan nan nan nan nan nan nan nan nan nan nan nan nan nan nan nan nan nan nan nan nan nan nan nan nan nan nan nan nan nan nan nan nan nan nan nan nan nan nan nan nan nan nan nan nan nan nan nan nan nan nan nan nan nan nan nan nan nan nan nan nan nan nan nan nan nan nan nan nan nan nan nan nan nan nan nan
nan nan nan nan nan nan nan nan nan nan nan nan nan nan nan nan nan nan nan nan nan nan nan nan nan nan nan nan nan nan nan nan nan nan nan nan nan nan nan nan nan nan nan nan nan nan nan nan nan nan nan nan nan nan nan nan nan nan nan nan nan nan nan nan nan nan nan nan nan nan nan nan nan nan nan nan nan nan nan nan nan nan nan nan nan
nan nan nan nan nan nan nan nan nan nan nan nan nan nan nan nan nan nan nan nan nan nan nan nan nan nan nan nan nan nan nan nan nan nan nan nan nan nan nan nan nan nan nan nan nan nan nan nan nan nan nan nan nan nan nan nan nan nan nan nan nan nan nan nan nan nan nan nan nan nan nan nan nan nan nan nan nan nan nan nan nan nan nan nan nan
nan nan nan nan nan nan nan nan nan nan nan nan nan nan nan nan nan nan nan nan nan nan nan nan nan nan nan nan nan nan nan nan nan nan nan nan nan nan nan nan nan nan nan nan nan nan nan nan nan nan nan nan nan nan nan nan nan nan nan nan nan nan nan nan nan nan nan nan nan nan nan nan nan nan nan nan nan nan nan nan nan nan nan nan nan
nan nan nan nan nan nan nan nan nan nan nan nan nan nan nan nan nan nan nan nan nan nan nan nan nan nan nan nan nan nan nan nan nan nan nan nan nan nan nan nan nan nan nan nan nan nan nan nan nan nan nan nan nan nan nan nan nan nan nan nan nan nan nan nan nan nan nan nan nan nan nan nan nan nan nan nan nan nan nan nan nan nan nan nan nan
nan nan nan nan nan nan nan nan nan nan nan nan nan nan nan nan nan nan nan nan nan nan nan nan nan nan nan nan nan nan nan nan nan nan nan nan nan nan nan nan nan nan nan nan nan nan nan nan nan nan nan nan nan nan nan nan nan nan nan nan nan nan nan nan nan nan nan nan nan nan nan nan nan nan nan nan nan nan nan nan nan nan nan nan nan
nan nan nan nan nan nan nan nan nan nan nan nan nan nan nan nan nan nan nan nan nan nan nan nan nan nan nan nan nan nan nan nan nan nan nan nan nan nan nan nan nan nan nan nan nan nan nan nan nan nan nan nan nan nan nan nan nan nan nan nan nan nan nan nan nan nan nan nan nan nan nan nan nan nan nan nan nan nan nan nan nan nan nan nan nan
nan nan nan nan nan nan nan nan nan nan nan nan nan nan nan nan nan nan nan nan nan nan nan nan nan nan nan nan nan nan nan nan nan nan nan nan nan nan nan nan nan nan nan nan nan nan nan nan nan nan nan nan nan nan nan nan nan nan nan nan nan nan nan nan nan nan nan nan nan nan nan nan nan nan nan nan nan nan nan nan nan nan nan nan nan
nan nan nan nan nan nan nan nan nan nan nan nan nan nan nan nan nan nan nan nan nan nan nan nan nan nan nan nan nan nan nan nan nan nan nan nan nan nan nan nan nan nan nan nan nan nan nan nan nan nan nan nan nan nan nan nan nan nan nan nan nan nan nan nan nan nan nan nan nan nan nan nan nan nan nan nan nan nan nan nan nan nan nan nan nan
nan nan nan nan nan nan nan nan nan nan nan nan nan nan nan nan nan nan nan nan nan nan nan nan nan nan nan nan nan nan nan nan nan nan nan nan nan nan nan nan nan nan nan nan nan nan nan nan nan nan nan nan nan nan nan nan nan nan nan nan nan nan nan nan nan nan nan nan nan nan nan nan nan nan nan nan nan nan nan nan nan nan nan nan nan
nan nan nan nan nan nan nan nan nan nan nan nan nan nan nan nan nan nan nan nan nan nan nan nan nan nan nan nan nan nan nan nan nan nan nan nan nan nan nan nan nan nan nan nan nan nan nan nan nan nan nan nan nan nan nan nan nan nan nan nan nan nan nan nan nan nan nan nan nan nan nan nan nan nan nan nan nan nan nan nan nan nan nan nan nan
nan nan nan nan nan nan nan nan nan nan nan nan nan nan nan nan nan nan nan nan nan nan nan nan nan nan nan nan nan nan nan nan nan nan nan nan nan nan nan nan nan nan nan nan nan nan nan nan nan nan nan nan nan nan nan nan nan nan nan nan nan nan nan nan nan nan nan nan nan nan nan nan nan nan nan nan nan nan nan nan nan nan nan nan nan
Wind_Direction
273 264 263 264 267 269 273 272 273 260 260 259 242 259 254 241 248 240 244 231 242 247 231 223 230 234 230 236 238 242 241 245 247 254 260 262 256 256 249 277 283 285 292 282 276 280 288 285 279 287 279 282 292 292 289 296 309 319 316 316 319 314 311 302 299 299 304 307 313 318 305 305 329 316 332 329 329 319 302 319 303 345 328 307 267
266 267 261 264 267 268 269 267 266 262 263 262 249 253 256 252 248 236 247 237 232 236 241 234 230 233 229 241 235 240 248 243 241 251 255 255 255 262 274 265 260 262 255 283 294 285 292 300 301 303 310 308 297 302 304 305 306 299 302 302 302 304 304 306 303 304 304 309 311 303 321 322 324 314 314 323 322 306 315 298 322 304 294 293 311
265 266 267 266 270 268 264 264 262 263 265 260 261 261 259 262 259 253 246 250 240 227 241 230 240 234 228 233 237 232 242 241 237 236 241 246 241 236 244 270 271 263 274 275 276 282 290 299 315 315 313 316 309 307 307 303 285 285 282 280 282 285 292 301 305 307 307 305 308 315 307 301 307 308 316 314 305 315 302 306 295 307 311 302 313
262 260 262 270 276 274 270 267 268 266 262 256 265 262 262 259 254 259 257 251 254 243 237 238 243 236 228 231 239 233 235 233 230 238 236 236 234 235 222 229 241 251 251 244 256 265 266 281 278 284 293 291 285 270 263 272 283 286 289 294 296 301 300 301 304 307 305 303 303 307 301 299 309 314 316 309 305 286 290 295 310 308 287 298 315
262 264 263 264 268 271 276 273 272 270 267 261 260 256 260 266 259 257 248 234 260 252 251 239 246 244 234 234 236 236 235 234 229 228 240 243 241 242 247 253 249 245 244 246 252 251 252 251 259 265 267 276 298 303 291 281 281 285 290 292 295 296 297 296 297 297 300 304 303 306 309 318 315 326 292 281 283 294 295 293 285 297 303 302 323
261 262 263 263 260 259 261 267 273 275 271 267 269 265 256 255 259 256 252 249 250 261 259 250 249 251 240 241 241 242 239 239 239 230 229 248 251 244 249 251 255 258 259 264 269 270 271 274 267 265 268 275 270 270 268 275 280 291 292 288 290 292 295 302 307 309 308 308 305 305 312 313 295 272 268 272 266 278 300 304 310 313 314 314 310
265 264 265 262 259 260 256 254 257 266 267 260 261 266 265 266 263 260 259 254 257 252 261 260 254 253 255 248 251 253 251 248 247 247 242 238 237 249 247 255 257 254 261 259 261 269 273 274 276 275 274 275 277 279 281 285 286 286 290 295 299 304 305 305 306 310 311 309 308 313 309 301 291 284 271 261 278 292 291 291 306 306 307 308 311
266 266 264 264 261 260 258 255 253 252 257 254 247 254 262 263 264 265 264 263 258 258 256 267 263 260 261 259 256 256 257 249 255 256 252 252 252 229 225 231 252 262 262 265 266 268 274 278 278 284 287 283 284 281 280 277 278 281 285 288 287 287 286 289 292 293 296 299 300 296 290 289 300 299 299 305 301 303 298 284 288 285 291 299 295
263 263 262 262 264 262 259 258 253 252 255 257 255 248 249 250 254 257 259 259 261 265 264 251 260 267 265 264 263 256 258 259 255 248 242 246 246 249 252 226 225 258 265 265 273 275 272 272 279 278 287 296 273 256 254 255 259 266 269 273 281 286 287 288 289 289 290 289 287 289 294 298 298 303 298 289 290 290 290 285 279 275 277 279 284
259 259 260 260 262 264 263 260 258 254 254 256 254 254 252 255 256 257 257 258 253 252 257 267 260 258 263 262 255 258 257 249 241 233 245 247 250 247 249 249 235 235 261 267 268 272 273 277 276 290 276 284 282 284 280 282 278 272 272 269 271 275 277 280 281 283 284 285 284 282 282 284 284 284 283 285 289 294 285 277 277 274 274 277 286
256 254 255 256 259 263 263 263 263 263 259 258 256 254 254 257 254 257 260 260 261 258 255 256 258 256 254 262 267 262 254 245 238 244 242 246 246 253 251 250 247 242 251 262 263 264 274 283 286 287 287 296 293 297 303 305 310 310 308 305 296 293 288 281 278 271 273 277 278 278 277 275 273 273 277 281 281 270 270 275 273 273 276 273 271
256 252 250 253 256 259 259 262 263 263 262 262 261 257 258 254 257 259 262 265 262 262 265 261 257 257 254 253 254 254 252 244 241 240 240 238 241 244 248 256 258 253 250 250 258 264 267 265 270 277 288 298 284 290 301 311 311 310 311 305 301 304 301 298 295 291 288 284 282 279 271 272 272 278 279 275 271 270 271 275 282 277 271 270 268
258 251 248 252 255 256 255 257 259 258 259 261 260 265 261 260 260 260 260 258 261 261 259 261 262 258 254 252 252 253 251 240 238 238 239 238 240 242 250 250 248 254 259 258 256 251 254 262 261 268 269 296 303 305 300 305 310 316 314 311 310 310 306 304 300 296 287 289 285 285 285 272 267 267 265 265 269 283 286 286 277 273 263 256 253
267 263 259 256 254 254 256 251 257 256 258 260 256 257 258 261 263 260 259 259 257 258 260 261 260 260 259 256 253 249 248 240 240 238 240 238 240 240 248 248 251 250 250 252 258 265 263 263 270 271 267 268 256 255 261 261 278 290 293 293 294 305 315 322 325 331 318 293 281 279 281 280 280 276 267 265 271 275 269 266 257 251 247 240 231
266 266 268 267 261 255 257 253 247 254 260 259 258 256 256 258 261 259 260 261 263 262 261 262 260 261 262 259 259 253 247 240 240 239 237 237 238 242 247 248 250 256 262 264 263 264 270 265 260 257 258 261 258 250 255 258 259 257 260 264 269 270 278 288 296 295 292 297 297 288 277 283 283 274 273 270 261 260 259 257 258 260 261 260 267
260 262 267 269 266 264 256 255 254 248 249 255 258 260 259 257 259 257 255 254 254 259 262 261 263 262 261 264 262 254 249 241 240 240 238 237 237 246 250 249 249 249 253 253 248 244 242 244 251 256 264 259 253 247 251 254 256 255 253 258 261 261 263 258 249 247 256 268 276 265 259 254 257 260 265 272 274 272 271 276 281 290 292 291 295
262 261 261 263 262 268 269 262 258 260 259 257 259 260 261 258 256 256 256 254 253 252 249 250 243 239 245 252 253 253 249 241 239 239 239 237 241 249 249 250 249 247 251 251 255 258 257 251 258 263 263 262 254 250 248 249 260 257 255 251 253 256 258 258 253 253 256 252 251 255 256 255 254 254 254 259 278 282 288 298 305 297 291 290 290
263 266 268 271 269 268 269 273 268 264 264 263 260 257 255 256 260 259 258 257 255 257 258 254 255 252 250 252 252 251 249 244 238 238 238 237 240 247 248 248 250 254 252 252 252 253 254 251 253 259 261 262 256 254 252 255 261 259 255 251 250 254 258 258 258 259 255 257 265 269 270 267 267 271 281 292 293 289 294 301 289 278 279 279 277
264 267 269 272 273 275 277 274 267 262 261 259 257 259 259 257 254 253 251 251 253 258 263 261 254 248 248 250 246 246 247 246 240 237 237 237 239 247 252 254 252 250 253 255 252 253 259 256 254 254 259 262 262 262 259 260 263 263 259 257 256 253 253 250 253 251 251 251 254 258 263 272 279 279 277 276 283 291 297 296 288 286 280 278 278
261 261 264 267 269 273 275 274 270 267 264 260 258 257 257 253 254 253 251 252 254 255 261 263 258 252 251 251 247 245 247 247 243 239 238 236 235 241 248 245 245 248 251 256 259 257 264 265 259 252 251 252 254 254 257 259 265 263 263 263 258 254 250 249 253 254 256 259 257 257 259 261 265 270 271 270 278 288 294 296 292 288 285 284 287
257 260 262 264 267 269 269 269 268 265 260 258 255 256 253 253 250 251 252 252 253 255 257 258 255 252 250 250 252 250 247 246 243 239 239 238 236 238 248 245 245 247 247 256 258 260 258 259 259 255 251 250 252 253 257 262 267 267 265 263 262 260 258 256 253 255 261 261 262 263 266 265 264 265 266 267 271 274 279 288 291 289 289 288 284
253 253 256 260 264 265 261 261 260 261 262 261 262 261 262 259 255 250 248 248 250 252 253 252 254 254 253 251 251 252 247 244 244 241 239 239 240 240 246 247 243 251 252 254 252 253 254 257 256 253 250 248 249 251 256 263 267 270 266 267 261 259 264 263 262 258 259 260 261 263 265 265 263 262 263 264 265 265 267 273 281 290 294 292 291
251 250 250 249 nan 247 250 256 258 258 nan nan nan 264 263 263 261 259 255 250 nan 252 253 257 262 265 262 256 256 253 250 248 245 245 242 241 240 241 242 246 239 245 248 249 251 256 259 258 258 250 248 249 250 252 251 254 272 265 nan nan nan nan nan 268 261 262 262 263 264 265 265 265 264 264 265 265 265 266 267 268 272 277 287 294 300
247 249 250 nan nan 251 nan nan 257 258 258 258 nan 263 nan nan 263 262 nan 257 nan nan nan 269 275 277 273 271 267 263 258 254 250 247 245 243 241 241 241 241 241 242 246 251 256 nan nan nan nan nan nan nan nan nan nan nan nan nan nan nan nan nan 266 260 263 263 265 267 268 270 272 272 272 270 268 267 266 267 268 271 272 273 275 280 286
nan nan nan nan nan nan nan nan nan nan nan nan 260 263 264 nan nan nan nan nan nan nan nan nan 273 272 272 269 265 261 259 257 253 251 250 249 243 239 240 nan nan nan nan nan nan nan nan nan nan nan nan nan nan nan nan nan nan nan nan nan nan nan nan nan nan nan 269 nan nan nan nan nan nan nan nan nan nan nan 274 275 274 nan nan nan nan
nan nan nan nan nan nan nan nan nan nan nan nan nan 258 261 nan nan nan nan nan nan nan 274 272 270 nan nan nan nan nan nan nan nan nan nan nan nan nan nan nan nan nan nan nan nan nan nan nan nan nan nan nan nan nan nan nan nan nan nan nan nan nan nan nan nan nan nan nan nan nan nan nan nan nan nan nan nan nan nan nan nan nan nan nan nan
nan nan nan nan nan nan nan nan nan nan nan nan nan nan nan nan nan nan nan nan nan nan nan nan nan nan nan nan nan nan nan nan nan nan nan nan nan nan nan nan nan nan nan nan nan nan nan nan nan nan nan nan nan nan nan nan nan nan nan nan nan nan nan nan nan nan nan nan nan nan nan nan nan nan nan nan nan nan nan nan nan nan nan nan nan
nan nan 243 245 247 nan nan nan nan nan nan nan nan nan nan nan nan nan nan nan nan nan nan nan nan nan nan nan nan nan nan nan nan nan nan nan nan nan nan nan nan nan nan nan nan nan nan nan nan nan nan nan nan nan nan nan nan nan nan nan nan nan nan nan nan nan nan nan nan nan nan nan nan nan nan nan nan nan nan nan nan nan nan nan nan
nan nan nan nan nan nan nan nan nan nan nan nan nan nan nan nan nan nan nan nan nan nan nan nan nan nan nan nan nan nan nan nan nan nan nan nan nan nan nan nan nan nan nan nan nan nan nan nan nan nan nan nan nan nan nan nan nan nan nan nan nan nan nan nan nan nan nan nan nan nan nan nan nan nan nan nan nan nan nan nan nan nan nan nan nan
nan nan nan nan nan nan nan nan nan nan nan nan nan nan nan nan nan nan nan nan nan nan nan nan nan nan nan nan nan nan nan nan nan nan nan nan nan nan nan nan nan nan nan nan nan nan nan nan nan nan nan nan nan nan nan nan nan nan nan nan nan nan nan nan nan nan nan nan nan nan nan nan nan nan nan nan nan nan nan nan nan nan nan nan nan
nan nan nan nan nan nan nan nan nan nan nan nan nan nan nan nan nan nan nan nan nan nan nan nan nan nan nan nan nan nan nan nan nan nan nan nan nan nan nan nan nan nan nan nan nan nan nan nan nan nan nan nan nan nan nan nan nan nan nan nan nan nan nan nan nan nan nan nan nan nan nan nan nan nan nan nan nan nan nan nan nan nan nan nan nan
nan nan nan nan nan nan nan nan nan nan nan nan nan nan nan nan nan nan nan nan nan nan nan nan nan nan nan nan nan nan nan nan nan nan nan nan nan nan nan nan nan nan nan nan nan nan nan nan nan nan nan nan nan nan nan nan nan nan nan nan nan nan nan nan nan nan nan nan nan nan nan nan nan nan nan nan nan nan nan nan nan nan nan nan nan
nan nan nan nan nan nan nan nan nan nan nan nan nan nan nan nan nan nan nan nan nan nan nan nan nan nan nan nan nan nan nan nan nan nan nan nan nan nan nan nan nan nan nan nan nan nan nan nan nan nan nan nan nan nan nan nan nan nan nan nan nan nan nan nan nan nan nan nan nan nan nan nan nan nan nan nan nan nan nan nan nan nan nan nan nan
nan nan nan nan nan nan nan nan nan nan nan nan nan nan nan nan nan nan nan nan nan nan nan nan nan nan nan nan nan nan nan nan nan nan nan nan nan nan nan nan nan nan nan nan nan nan nan nan nan nan nan nan nan nan nan nan nan nan nan nan nan nan nan nan nan nan nan nan nan nan nan nan nan nan nan nan nan nan nan nan nan nan nan nan nan
nan nan nan nan nan nan nan nan nan nan nan nan nan nan nan nan nan nan nan nan nan nan nan nan nan nan nan nan nan nan nan nan nan nan nan nan nan nan nan nan nan nan nan nan nan nan nan nan nan nan nan nan nan nan nan nan nan nan nan nan nan nan nan nan nan nan nan nan nan nan nan nan nan nan nan nan nan nan nan nan nan nan nan nan nan
nan nan nan nan nan nan nan nan nan nan nan nan nan nan nan nan nan nan nan nan nan nan nan nan nan nan nan nan nan nan nan nan nan nan nan nan nan nan nan nan nan nan nan nan nan nan nan nan nan nan nan nan nan nan nan nan nan nan nan nan nan nan nan nan nan nan nan nan nan nan nan nan nan nan nan nan nan nan nan nan nan nan nan nan nan
nan nan nan nan nan nan nan nan nan nan nan nan nan nan nan nan nan nan nan nan nan nan nan nan nan nan nan nan nan nan nan nan nan nan nan nan nan nan nan nan nan nan nan nan nan nan nan nan nan nan nan nan nan nan nan nan nan nan nan nan nan nan nan nan nan nan nan nan nan nan nan nan nan nan nan nan nan nan nan nan nan nan nan nan nan
nan nan nan nan nan nan nan nan nan nan nan nan nan nan nan nan nan nan nan nan nan nan nan nan nan nan nan nan nan nan nan nan nan nan nan nan nan nan nan nan nan nan nan nan nan nan nan nan nan nan nan nan nan nan nan nan nan nan nan nan nan nan nan nan nan nan nan nan nan nan nan nan nan nan nan nan nan nan nan nan nan nan nan nan nan
nan nan nan nan nan nan nan nan nan nan nan nan nan nan nan nan nan nan nan nan nan nan nan nan nan nan nan nan nan nan nan nan nan nan nan nan nan nan nan nan nan nan nan nan nan nan nan nan nan nan nan nan nan nan nan nan nan nan nan nan nan nan nan nan nan nan nan nan nan nan nan nan nan nan nan nan nan nan nan nan nan nan nan nan nan
nan nan nan nan nan nan nan nan nan nan nan nan nan nan nan nan nan nan nan nan nan nan nan nan nan nan nan nan nan nan nan nan nan nan nan nan nan nan nan nan nan nan nan nan nan nan nan nan nan nan nan nan nan nan nan nan nan nan nan nan nan nan nan nan nan nan nan nan nan nan nan nan nan nan nan nan nan nan nan nan nan nan nan nan nan
nan nan nan nan nan nan nan nan nan nan nan nan nan nan nan nan nan nan nan nan nan nan nan nan nan nan nan nan nan nan nan nan nan nan nan nan nan nan nan nan nan nan nan nan nan nan nan nan nan nan nan nan nan nan nan nan nan nan nan nan nan nan nan nan nan nan nan nan nan nan nan nan nan nan nan nan nan nan nan nan nan nan nan nan nan
nan nan nan nan nan nan nan nan nan nan nan nan nan nan nan nan nan nan nan nan nan nan nan nan nan nan nan nan nan nan nan nan nan nan nan nan nan nan nan nan nan nan nan nan nan nan nan nan nan nan nan nan nan nan nan nan nan nan nan nan nan nan nan nan nan nan nan nan nan nan nan nan nan nan nan nan nan nan nan nan nan nan nan nan nan
nan nan nan nan nan nan nan nan nan nan nan nan nan nan nan nan nan nan nan nan nan nan nan nan nan nan nan nan nan nan nan nan nan nan nan nan nan nan nan nan nan nan nan nan nan nan nan nan nan nan nan nan nan nan nan nan nan nan nan nan nan nan nan nan nan nan nan nan nan nan nan nan nan nan nan nan nan nan nan nan nan nan nan nan nan
nan nan nan nan nan nan nan nan nan nan nan nan nan nan nan nan nan nan nan nan nan nan nan nan nan nan nan nan nan nan nan nan nan nan nan nan nan nan nan nan nan nan nan nan nan nan nan nan nan nan nan nan nan nan nan nan nan nan nan nan nan nan nan nan nan nan nan nan nan nan nan nan nan nan nan nan nan nan nan nan nan nan nan nan nan
nan nan nan nan nan nan nan nan nan nan nan nan nan nan nan nan nan nan nan nan nan nan nan nan nan nan nan nan nan nan nan nan nan nan nan nan nan nan nan nan nan nan nan nan nan nan nan nan nan nan nan nan nan nan nan nan nan nan nan nan nan nan nan nan nan nan nan nan nan nan nan nan nan nan nan nan nan nan nan nan nan nan nan nan nan
nan nan nan nan nan nan nan nan nan nan nan nan nan nan nan nan nan nan nan nan nan nan nan nan nan nan nan nan nan nan nan nan nan nan nan nan nan nan nan nan nan nan nan nan nan nan nan nan nan nan nan nan nan nan nan nan nan nan nan nan nan nan nan nan nan nan nan nan nan nan nan nan nan nan nan nan nan nan nan nan nan nan nan nan nan
nan nan nan nan nan nan nan nan nan nan nan nan nan nan nan nan nan nan nan nan nan nan nan nan nan nan nan nan nan nan nan nan nan nan nan nan nan nan nan nan nan nan nan nan nan nan nan nan nan nan nan nan nan nan nan nan nan nan nan nan nan nan nan nan nan nan nan nan nan nan nan nan nan nan nan nan nan nan nan nan nan nan nan nan nan
nan nan nan nan nan nan nan nan nan nan nan nan nan nan nan nan nan nan nan nan nan nan nan nan nan nan nan nan nan nan nan nan nan nan nan nan nan nan nan nan nan nan nan nan nan nan nan nan nan nan nan nan nan nan nan nan nan nan nan nan nan nan nan nan nan nan nan nan nan nan nan nan nan nan nan nan nan nan nan nan nan nan nan nan nan
nan nan nan nan nan nan nan nan nan nan nan nan nan nan nan nan nan nan nan nan nan nan nan nan nan nan nan nan nan nan nan nan nan nan nan nan nan nan nan nan nan nan nan nan nan nan nan nan nan nan nan nan nan nan nan nan nan nan nan nan nan nan nan nan nan nan nan nan nan nan nan nan nan nan nan nan nan nan nan nan nan nan nan nan nan
nan nan nan nan nan nan nan nan nan nan nan nan nan nan nan nan nan nan nan nan nan nan nan nan nan nan nan nan nan nan nan nan nan nan nan nan nan nan nan nan nan nan nan nan nan nan nan nan nan nan nan nan nan nan nan nan nan nan nan nan nan nan nan nan nan nan nan nan nan nan nan nan nan nan nan nan nan nan nan nan nan nan nan nan nan
nan nan nan nan nan nan nan nan nan nan nan nan nan nan nan nan nan nan nan nan nan nan nan nan nan nan nan nan nan nan nan nan nan nan nan nan nan nan nan nan nan nan nan nan nan nan nan nan nan nan nan nan nan nan nan nan nan nan nan nan nan nan nan nan nan nan nan nan nan nan nan nan nan nan nan nan nan nan nan nan nan nan nan nan nan